When you browse on this site, cookies collect data to enhance your experience and personalize the content and advertising you see.
Visit our Privacy Policy to learn more. By continuing to use the site, you agree to this use of cookies and data.
  • In Romania
  • List of Countries
  • For 7 days
  • Water Temperature
  • Satellite Maps
  • Weather Map
  • Weather Widgets
  • user-avatar
    Login

    Hourly Weather Wurzburg

    Today, 25 May, Saturday

    Time Temperature Precipitation Wind Pressure Humidity
    00:00 +13°C° 0 mm 1 mps 743 mmHg 83%
    01:00 +12°C° 0 mm 0 mps 743 mmHg 80%
    02:00 +12°C° 0 mm 0 mps 743 mmHg 82%
    03:00 +11°C° 0 mm 0 mps 743 mmHg 83%
    04:00 +11°C° 0 mm 0 mps 743 mmHg 85%
    05:00 +12°C° 0.2 mm 0 mps 743 mmHg 84%
    06:00 +14°C° 0.2 mm 0 mps 743 mmHg 83%
    07:00 +15°C° 0 mm 0 mps 744 mmHg 81%
    08:00 +18°C° 0.7 mm 1 mps 744 mmHg 77%
    09:00 +20°C° 0.7 mm 1 mps 744 mmHg 73%
    10:00 +20°C° 0.7 mm 2 mps 744 mmHg 70%
    11:00 +20°C° 0.7 mm 2 mps 744 mmHg 67%
    12:00 +21°C° 0.7 mm 2 mps 744 mmHg 65%
    13:00 +21°C° 0 mm 2 mps 744 mmHg 64%
    14:00 +21°C° 0.3 mm 2 mps 744 mmHg 63%
    15:00 +21°C° 0.3 mm 2 mps 744 mmHg 63%
    16:00 +21°C° 0.3 mm 2 mps 744 mmHg 62%
    17:00 +20°C° 0.2 mm 2 mps 743 mmHg 67%
    18:00 +20°C° 0.2 mm 1 mps 743 mmHg 72%
    19:00 +19°C° 0.2 mm 1 mps 743 mmHg 77%
    20:00 +16°C° 0 mm 1 mps 744 mmHg 81%
    21:00 +15°C° 0 mm 1 mps 744 mmHg 85%
    22:00 +13°C° 0 mm 1 mps 744 mmHg 88%
    23:00 +12°C° 0 mm 1 mps 744 mmHg 90%

    Tomorrow, 26 May, Sunday

    Time Temperature Precipitation Wind Pressure Humidity
    00:00 +12°C° 0 mm 1 mps 744 mmHg 91%
    01:00 +11°C° 0 mm 1 mps 744 mmHg 93%
    02:00 +11°C° 0 mm 1 mps 744 mmHg 93%
    03:00 +9°C° 0 mm 0 mps 744 mmHg 93%
    04:00 +9°C° 0 mm 0 mps 744 mmHg 94%
    05:00 +10°C° 0 mm 0 mps 744 mmHg 91%
    06:00 +12°C° 0 mm 0 mps 744 mmHg 89%
    07:00 +14°C° 0 mm 1 mps 744 mmHg 86%
    08:00 +16°C° 0 mm 1 mps 744 mmHg 80%
    09:00 +17°C° 0 mm 2 mps 744 mmHg 73%
    10:00 +19°C° 0 mm 2 mps 744 mmHg 67%
    11:00 +20°C° 0 mm 3 mps 744 mmHg 65%
    12:00 +21°C° 0 mm 3 mps 744 mmHg 62%
    13:00 +21°C° 0 mm 4 mps 743 mmHg 60%
    14:00 +22°C° 0 mm 3 mps 743 mmHg 61%
    15:00 +22°C° 0 mm 3 mps 743 mmHg 61%
    16:00 +22°C° 0 mm 3 mps 742 mmHg 62%
    17:00 +21°C° 0 mm 3 mps 742 mmHg 67%
    18:00 +20°C° 0 mm 3 mps 742 mmHg 72%
    19:00 +19°C° 0 mm 2 mps 742 mmHg 76%
    20:00 +17°C° 0 mm 2 mps 742 mmHg 79%
    21:00 +16°C° 0 mm 3 mps 742 mmHg 82%
    22:00 +13°C° 0 mm 3 mps 742 mmHg 84%
    23:00 +13°C° 0 mm 3 mps 742 mmHg 87%

    Day after tomorrow, 27 May, Monday

    Time Temperature Precipitation Wind Pressure Humidity
    00:00 +12°C° 0 mm 3 mps 742 mmHg 90%
    01:00 +12°C° 0 mm 3 mps 742 mmHg 93%
    02:00 +12°C° 0 mm 3 mps 742 mmHg 94%
    03:00 +12°C° 0 mm 3 mps 741 mmHg 95%
    04:00 +12°C° 0 mm 3 mps 741 mmHg 97%
    05:00 +13°C° 0 mm 3 mps 741 mmHg 94%
    06:00 +14°C° 0 mm 4 mps 741 mmHg 92%
    07:00 +15°C° 0 mm 4 mps 741 mmHg 90%
    08:00 +17°C° 0.1 mm 4 mps 741 mmHg 87%
    09:00 +18°C° 0.1 mm 4 mps 741 mmHg 85%
    10:00 +18°C° 0.1 mm 4 mps 741 mmHg 82%
    11:00 +19°C° 0.2 mm 4 mps 741 mmHg 80%
    12:00 +20°C° 0.2 mm 4 mps 741 mmHg 78%
    13:00 +20°C° 0.2 mm 4 mps 740 mmHg 76%
    14:00 +20°C° 0.4 mm 4 mps 740 mmHg 77%
    15:00 +20°C° 0.4 mm 4 mps 740 mmHg 77%
    16:00 +20°C° 0.4 mm 4 mps 739 mmHg 78%
    17:00 +20°C° 0.1 mm 3 mps 739 mmHg 79%
    18:00 +19°C° 0.1 mm 2 mps 739 mmHg 81%
    19:00 +18°C° 0.1 mm 2 mps 739 mmHg 83%
    20:00 +17°C° 0 mm 2 mps 739 mmHg 86%
    21:00 +15°C° 0 mm 2 mps 739 mmHg 90%
    22:00 +14°C° 0 mm 2 mps 739 mmHg 93%
    23:00 +13°C° 0 mm 2 mps 739 mmHg 93%

    28 May, Tuesday

    Time Temperature Precipitation Wind Pressure Humidity
    00:00 +13°C° 0 mm 2 mps 739 mmHg 94%
    01:00 +13°C° 0 mm 2 mps 739 mmHg 94%
    02:00 +12°C° 0 mm 1 mps 739 mmHg 95%
    03:00 +12°C° 0 mm 1 mps 738 mmHg 95%
    04:00 +12°C° 0 mm 1 mps 738 mmHg 95%
    05:00 +13°C° 0 mm 1 mps 738 mmHg 93%
    06:00 +14°C° 0 mm 1 mps 738 mmHg 91%
    07:00 +14°C° 0 mm 2 mps 738 mmHg 89%
    08:00 +14°C° 0.4 mm 3 mps 738 mmHg 86%
    09:00 +16°C° 0.4 mm 3 mps 738 mmHg 82%
    10:00 +17°C° 0.4 mm 4 mps 738 mmHg 79%
    11:00 +15°C° 0.3 mm 4 mps 738 mmHg 79%
    12:00 +15°C° 0.3 mm 4 mps 738 mmHg 80%
    13:00 +15°C° 0.3 mm 4 mps 738 mmHg 80%
    14:00 +17°C° 0.2 mm 4 mps 738 mmHg 75%
    15:00 +17°C° 0.2 mm 4 mps 738 mmHg 70%
    16:00 +18°C° 0.2 mm 4 mps 738 mmHg 64%
    17:00 +17°C° 0.3 mm 4 mps 738 mmHg 71%
    18:00 +16°C° 0.3 mm 3 mps 738 mmHg 78%
    19:00 +14°C° 0.3 mm 3 mps 738 mmHg 85%
    20:00 +12°C° 0.1 mm 3 mps 739 mmHg 87%
    21:00 +11°C° 0.1 mm 3 mps 739 mmHg 90%
    22:00 +9°C° 0.1 mm 3 mps 740 mmHg 92%
    23:00 +9°C° 0 mm 3 mps 740 mmHg 93%

    29 May, Wednesday

    Time Temperature Precipitation Wind Pressure Humidity
    00:00 +8°C° 0 mm 3 mps 740 mmHg 94%
    01:00 +8°C° 0 mm 3 mps 741 mmHg 95%
    02:00 +8°C° 0 mm 3 mps 741 mmHg 95%
    03:00 +8°C° 0 mm 3 mps 741 mmHg 96%
    04:00 +7°C° 0 mm 3 mps 741 mmHg 97%
    05:00 +8°C° 0 mm 3 mps 742 mmHg 94%
    06:00 +8°C° 0 mm 4 mps 742 mmHg 92%
    07:00 +10°C° 0 mm 4 mps 743 mmHg 90%
    08:00 +11°C° 0.2 mm 4 mps 743 mmHg 86%
    09:00 +12°C° 0.2 mm 4 mps 744 mmHg 81%
    10:00 +13°C° 0.2 mm 4 mps 744 mmHg 77%
    11:00 +14°C° 0.3 mm 4 mps 744 mmHg 72%
    12:00 +15°C° 0.3 mm 4 mps 744 mmHg 68%
    13:00 +17°C° 0.3 mm 4 mps 744 mmHg 63%
    14:00 +17°C° 0.1 mm 3 mps 744 mmHg 61%
    15:00 +18°C° 0.1 mm 3 mps 744 mmHg 59%
    16:00 +18°C° 0.1 mm 3 mps 744 mmHg 57%
    17:00 +17°C° 0 mm 2 mps 745 mmHg 62%
    18:00 +16°C° 0 mm 2 mps 745 mmHg 68%
    19:00 +16°C° 0 mm 2 mps 745 mmHg 74%
    20:00 +14°C° 0 mm 1 mps 746 mmHg 78%
    21:00 +12°C° 0 mm 1 mps 746 mmHg 81%
    22:00 +11°C° 0 mm 1 mps 747 mmHg 85%
    23:00 +10°C° 0 mm 1 mps 747 mmHg 87%

    30 May, Thursday

    Time Temperature Precipitation Wind Pressure Humidity
    00:00 +10°C° 0 mm 1 mps 747 mmHg 89%
    01:00 +8°C° 0 mm 2 mps 748 mmHg 91%
    02:00 +8°C° 0 mm 2 mps 748 mmHg 92%
    03:00 +8°C° 0 mm 2 mps 748 mmHg 93%
    04:00 +7°C° 0 mm 2 mps 748 mmHg 94%
    05:00 +9°C° 0 mm 2 mps 749 mmHg 92%
    06:00 +10°C° 0 mm 2 mps 749 mmHg 90%
    07:00 +11°C° 0 mm 3 mps 750 mmHg 88%
    08:00 +13°C° 0 mm 3 mps 750 mmHg 81%
    09:00 +14°C° 0 mm 3 mps 750 mmHg 74%
    10:00 +17°C° 0 mm 4 mps 750 mmHg 66%
    11:00 +17°C° 0.1 mm 4 mps 749 mmHg 65%
    12:00 +17°C° 0.1 mm 5 mps 749 mmHg 63%
    13:00 +19°C° 0.1 mm 5 mps 749 mmHg 61%
    14:00 +19°C° 0.1 mm 5 mps 749 mmHg 64%
    15:00 +19°C° 0.1 mm 5 mps 748 mmHg 66%
    16:00 +19°C° 0.1 mm 5 mps 748 mmHg 68%
    17:00 +17°C° 0.2 mm 5 mps 748 mmHg 74%
    18:00 +17°C° 0.2 mm 4 mps 748 mmHg 80%
    19:00 +15°C° 0.2 mm 4 mps 748 mmHg 85%
    20:00 +14°C° 0.2 mm 4 mps 749 mmHg 87%
    21:00 +14°C° 0.2 mm 4 mps 749 mmHg 88%
    22:00 +13°C° 0.2 mm 4 mps 749 mmHg 90%
    23:00 +13°C° 0.1 mm 4 mps 749 mmHg 91%
    Show more